SCP
0 0 0 0 0 0 0 0 0 0 0 0 0 0 0 -0 -0 -0 -0 -0 -0 -0 -0 -0 0 0 0 0 0 0 0 0
0 0 0 0 0 0 0 0 0 0 0 0 0 0 0 0 -0 -0 -0 -0 -0 -0 0 0 0 0 0 0 0 0 0 0
0 0 0 0 0 0 0 0 0 0 0 0 0 0 0 0 0 -0 -0 -0 -0 -0 0 0 0 0 0 0 0 0 0 0
0 0 0 0 0 0 0 0 0 0 0 0 0 0 0 0 0 0 0 0 0 0 0 0 0 0 0 0 0 0 0 0
0 0 0 0 0 0 0 0 0 0 0 0 0 0 0 0 0 0 0 0 0 0 0 0 0 0 0 0 0 0 0 0
0 0 0 0 0 0 0 0 0 0 0 0 0 0 0 0 0 0 0 0 0 0 0 0 0 0 0 1 1 0 1 1
0 0 0 0 0 0 0 0 0 0 0 0 0 0 0 0 0 0 0 0 0 0 0 0 0 0 1 1 1 1 1 1
0 0 0 0 0 0 0 0 0 0 0 0 0 0 0 0 0 0 0 0 0 0 0 0 0 0 0 0 0 0 0 0
0 0 0 0 0 0 0 0 0 0 0 0 0 0 0 0 0 0 0 0 0 0 0 0 0 0 1 1 0 1 0 1
0 0 0 0 0 0 0 0 0 0 0 0 0 0 0 0 0 0 0 0 0 0 1 1 0 0 0 0 1 1 1 1
0 0 0 0 0 0 0 0 0 0 0 0 0 0 0 0 0 0 0 0 0 0 2 2 2 0 1 1 1 1 1 2
0 0 0 0 0 0 0 0 0 0 0 0 0 0 0 0 0 0 0 0 0 0 3 3 2 1 2 2 1 1 1 3
0 0 0 0 0 0 0 0 0 0 0 0 0 0 0 0 0 0 0 0 0 1 2 4 2 2 2 1 1 1 2 5
0 0 0 0 0 0 0 0 0 0 0 0 0 0 0 0 0 0 0 0 1 0 0 4 4 3 2 1 1 1 2 4
0 0 0 0 0 0 0 0 0 0 0 0 0 0 0 0 0 0 0 0 0 1 0 2 4 2 2 3 2 1 2 3
0 0 0 0 0 0 0 0 0 0 0 0 0 0 0 0 0 0 0 1 2 1 2 3 1 3 1 0 1 2 2 3
0 0 0 0 0 0 0 0 0 0 0 0 0 0 0 0 0 0 0 1 1 1 3 2 1 1 0 1 2 2 2 3
0 0 0 0 0 0 0 0 0 0 0 0 0 0 0 0 0 0 0 0 1 2 2 4 2 3 2 3 1 2 2 4
0 0 0 0 0 0 0 0 0 0 0 0 0 0 0 0 0 0 0 0 0 2 3 4 3 3 6 4 4 3 4 3
0 0 0 0 0 0 0 0 0 0 0 0 0 0 0 0 0 0 0 0 0 1 3 4 6 2 5 2 2 2 2 1
Wind_Speed_500mb
18 29 33 30 34 23 35 9 16 13 19 17 14 12 10 30 45 45 45 46 44 43 42 41 42 41 40 36 34 31 28 26
25 39 41 44 6 13 21 17 19 23 9 12 8 8 17 45 46 42 42 43 41 42 40 41 42 43 39 37 36 34 32 29
33 42 46 28 32 19 15 20 17 22 22 21 19 12 24 45 45 41 40 39 40 42 41 40 42 42 40 39 38 36 35 34
33 44 39 37 23 25 31 32 29 22 28 17 16 20 29 50 44 37 40 38 39 42 42 40 40 39 41 40 38 38 38 37
41 41 41 26 31 29 37 36 37 35 34 34 24 27 35 49 43 38 39 37 39 41 45 44 42 38 39 39 39 41 41 40
42 38 44 39 37 39 38 37 36 23 23 34 30 29 40 48 44 38 38 35 34 38 44 46 46 45 43 41 41 43 45 43
49 45 38 27 39 52 38 41 36 23 33 5 12 26 42 50 45 40 36 37 35 32 37 43 47 47 46 46 47 49 51 50
47 39 31 25 36 42 41 35 43 38 11 6 14 31 46 50 46 44 40 39 34 36 38 37 37 37 45 49 57 58 58 60
52 55 48 37 44 42 47 34 48 41 36 23 12 32 46 48 46 44 41 38 33 40 38 38 36 38 41 38 45 51 59 65
67 72 50 35 47 51 57 51 49 45 43 40 18 22 37 37 43 38 32 38 34 34 44 43 40 40 40 38 36 39 44 50
75 68 62 65 51 54 58 63 58 54 33 33 30 29 30 30 29 26 27 33 33 34 46 38 35 45 44 42 38 38 42 48
76 74 72 58 62 47 75 62 66 65 61 51 51 49 41 38 38 38 36 35 34 32 38 41 28 24 35 37 38 43 44 48
58 71 68 72 54 61 83 69 66 69 63 61 64 60 55 45 41 39 40 35 37 41 36 44 38 34 35 37 44 46 47 54
68 58 63 53 73 73 78 73 76 77 74 66 68 63 59 53 50 43 44 44 40 39 34 34 39 38 40 43 52 47 45 47
62 60 58 59 72 65 89 81 71 82 78 75 77 75 63 58 60 45 41 43 40 38 36 38 38 48 51 54 59 50 42 41
61 56 55 60 73 66 76 72 69 88 73 76 76 70 63 49 41 40 44 45 43 46 46 53 60 62 62 56 56 45 42 41
60 50 57 58 62 70 64 66 67 71 72 82 72 65 65 53 42 45 47 51 58 58 57 57 63 60 51 45 42 40 39 42
56 60 52 51 57 65 52 60 71 75 78 68 61 63 62 59 56 57 58 56 59 59 50 54 49 55 44 41 39 39 35 41
56 50 53 55 58 62 61 61 63 75 82 82 80 73 64 60 58 59 61 58 56 56 49 53 47 45 51 46 37 38 38 39
44 47 43 56 46 52 58 56 52 67 70 68 62 62 66 69 70 69 68 63 62 60 58 51 48 47 42 37 37 38 38 34
Wind_Direction_500mb
228 234 248 258 202 186 203 121 230 236 214 206 185 244 99 161 151 161 178 182 185 192 192 192 191 186 183 186 189 190 189 187
261 250 230 261 319 196 197 199 217 238 193 199 212 158 164 162 162 166 172 183 182 196 198 197 198 197 191 194 199 199 201 201
249 245 264 253 266 231 247 223 210 196 227 206 192 186 166 176 162 165 171 178 185 200 203 204 204 205 200 202 206 208 211 211
246 248 250 257 251 232 241 238 229 211 240 216 185 191 177 168 167 170 175 178 192 203 209 213 213 212 214 210 213 217 220 221
252 271 279 258 246 229 240 239 236 229 222 228 192 206 184 176 174 173 178 177 208 207 213 218 222 223 227 224 222 224 226 228
255 252 251 268 288 282 255 247 257 272 231 226 212 181 181 181 179 180 182 186 197 220 221 224 227 228 229 233 236 235 235 232
252 253 253 242 248 247 253 254 271 237 240 27 139 181 185 185 188 190 191 196 199 209 227 228 233 238 237 239 241 241 242 238
253 265 280 267 263 264 241 226 238 216 233 219 196 192 189 190 193 199 198 202 205 205 209 223 217 233 246 245 245 245 243 242
248 246 256 258 263 263 265 240 220 228 200 203 172 197 200 198 205 205 212 210 214 231 215 214 221 218 243 250 249 252 249 246
255 269 272 245 256 263 265 256 248 231 219 189 187 206 216 222 215 223 216 221 216 223 251 241 225 228 231 229 241 246 257 258
250 251 254 264 245 255 255 251 253 249 240 217 232 228 227 231 239 235 235 227 234 234 251 258 252 229 236 237 237 235 237 252
253 253 249 242 249 252 253 251 251 245 248 240 238 233 231 231 235 241 243 240 241 233 238 258 248 246 239 252 239 242 237 236
261 245 248 250 248 237 248 250 247 250 242 242 245 242 239 237 244 247 248 247 244 239 236 252 243 252 265 261 260 251 241 238
245 247 248 240 250 247 245 244 246 246 248 241 239 238 241 243 248 249 253 252 248 241 238 251 253 257 270 268 268 251 244 235
253 242 240 237 248 249 251 251 247 241 242 242 243 242 243 247 251 247 247 245 239 238 234 234 250 260 270 269 265 248 240 232
255 257 234 236 241 246 248 250 253 256 250 237 238 238 239 234 240 243 242 242 239 238 246 258 262 267 267 264 261 244 234 228
274 264 244 259 241 244 240 239 252 257 240 244 244 242 243 238 238 244 245 247 252 255 261 260 256 256 253 251 242 237 228 222
271 268 273 265 256 260 248 239 234 243 249 252 242 239 244 248 251 253 252 251 252 261 259 258 252 248 241 245 241 231 221 217
279 285 267 260 262 266 259 249 244 244 246 249 248 249 251 252 253 252 253 252 252 255 255 247 254 245 244 235 227 220 211 208
270 264 260 251 259 246 245 249 243 246 243 246 249 253 252 253 253 253 251 253 249 245 248 246 238 233 228 229 222 216 205 201
Wind_Speed_850mb
18 29 33 30 34 23 35 9 16 13 19 17 14 12 10 30 45 45 45 46 44 43 42 41 42 41 40 36 34 31 28 26
25 39 41 44 6 13 21 17 19 23 9 12 8 8 17 45 46 42 42 43 41 42 40 41 42 43 39 37 36 34 32 29
33 42 46 28 32 19 15 20 17 22 22 21 19 12 24 45 45 41 40 39 40 42 41 40 42 42 40 39 38 36 35 34
33 44 39 37 23 25 31 32 29 22 28 17 16 20 29 50 44 37 40 38 39 42 42 40 40 39 41 40 38 38 38 37
41 41 41 26 31 29 37 36 37 35 34 34 24 27 35 49 43 38 39 37 39 41 45 44 42 38 39 39 39 41 41 40
42 38 44 39 37 39 38 37 36 23 23 34 30 29 40 48 44 38 38 35 34 38 44 46 46 45 43 41 41 43 45 43
49 45 38 27 39 52 38 41 36 23 33 5 12 26 42 50 45 40 36 37 35 32 37 43 47 47 46 46 47 49 51 50
47 39 31 25 36 42 41 35 43 38 11 6 14 31 46 50 46 44 40 39 34 36 38 37 37 37 45 49 57 58 58 60
52 55 48 37 44 42 47 34 48 41 36 23 12 32 46 48 46 44 41 38 33 40 38 38 36 38 41 38 45 51 59 65
67 72 50 35 47 51 57 51 49 45 43 40 18 22 37 37 43 38 32 38 34 34 44 43 40 40 40 38 36 39 44 50
75 68 62 65 51 54 58 63 58 54 33 33 30 29 30 30 29 26 27 33 33 34 46 38 35 45 44 42 38 38 42 48
76 74 72 58 62 47 75 62 66 65 61 51 51 49 41 38 38 38 36 35 34 32 38 41 28 24 35 37 38 43 44 48
58 71 68 72 54 61 83 69 66 69 63 61 64 60 55 45 41 39 40 35 37 41 36 44 38 34 35 37 44 46 47 54
68 58 63 53 73 73 78 73 76 77 74 66 68 63 59 53 50 43 44 44 40 39 34 34 39 38 40 43 52 47 45 47
62 60 58 59 72 65 89 81 71 82 78 75 77 75 63 58 60 45 41 43 40 38 36 38 38 48 51 54 59 50 42 41
61 56 55 60 73 66 76 72 69 88 73 76 76 70 63 49 41 40 44 45 43 46 46 53 60 62 62 56 56 45 42 41
60 50 57 58 62 70 64 66 67 71 72 82 72 65 65 53 42 45 47 51 58 58 57 57 63 60 51 45 42 40 39 42
56 60 52 51 57 65 52 60 71 75 78 68 61 63 62 59 56 57 58 56 59 59 50 54 49 55 44 41 39 39 35 41
56 50 53 55 58 62 61 61 63 75 82 82 80 73 64 60 58 59 61 58 56 56 49 53 47 45 51 46 37 38 38 39
44 47 43 56 46 52 58 56 52 67 70 68 62 62 66 69 70 69 68 63 62 60 58 51 48 47 42 37 37 38 38 34
Wind_Direction_850mb
228 234 248 258 202 186 203 121 230 236 214 206 185 244 99 161 151 161 178 182 185 192 192 192 191 186 183 186 189 190 189 187
261 250 230 261 319 196 197 199 217 238 193 199 212 158 164 162 162 166 172 183 182 196 198 197 198 197 191 194 199 199 201 201
249 245 264 253 266 231 247 223 210 196 227 206 192 186 166 176 162 165 171 178 185 200 203 204 204 205 200 202 206 208 211 211
246 248 250 257 251 232 241 238 229 211 240 216 185 191 177 168 167 170 175 178 192 203 209 213 213 212 214 210 213 217 220 221
252 271 279 258 246 229 240 239 236 229 222 228 192 206 184 176 174 173 178 177 208 207 213 218 222 223 227 224 222 224 226 228
255 252 251 268 288 282 255 247 257 272 231 226 212 181 181 181 179 180 182 186 197 220 221 224 227 228 229 233 236 235 235 232
252 253 253 242 248 247 253 254 271 237 240 27 139 181 185 185 188 190 191 196 199 209 227 228 233 238 237 239 241 241 242 238
253 265 280 267 263 264 241 226 238 216 233 219 196 192 189 190 193 199 198 202 205 205 209 223 217 233 246 245 245 245 243 242
248 246 256 258 263 263 265 240 220 228 200 203 172 197 200 198 205 205 212 210 214 231 215 214 221 218 243 250 249 252 249 246
255 269 272 245 256 263 265 256 248 231 219 189 187 206 216 222 215 223 216 221 216 223 251 241 225 228 231 229 241 246 257 258
250 251 254 264 245 255 255 251 253 249 240 217 232 228 227 231 239 235 235 227 234 234 251 258 252 229 236 237 237 235 237 252
253 253 249 242 249 252 253 251 251 245 248 240 238 233 231 231 235 241 243 240 241 233 238 258 248 246 239 252 239 242 237 236
261 245 248 250 248 237 248 250 247 250 242 242 245 242 239 237 244 247 248 247 244 239 236 252 243 252 265 261 260 251 241 238
245 247 248 240 250 247 245 244 246 246 248 241 239 238 241 243 248 249 253 252 248 241 238 251 253 257 270 268 268 251 244 235
253 242 240 237 248 249 251 251 247 241 242 242 243 242 243 247 251 247 247 245 239 238 234 234 250 260 270 269 265 248 240 232
255 257 234 236 241 246 248 250 253 256 250 237 238 238 239 234 240 243 242 242 239 238 246 258 262 267 267 264 261 244 234 228
274 264 244 259 241 244 240 239 252 257 240 244 244 242 243 238 238 244 245 247 252 255 261 260 256 256 253 251 242 237 228 222
271 268 273 265 256 260 248 239 234 243 249 252 242 239 244 248 251 253 252 251 252 261 259 258 252 248 241 245 241 231 221 217
279 285 267 260 262 266 259 249 244 244 246 249 248 249 251 252 253 252 253 252 252 255 255 247 254 245 244 235 227 220 211 208
270 264 260 251 259 246 245 249 243 246 243 246 249 253 252 253 253 253 251 253 249 245 248 246 238 233 228 229 222 216 205 201